Find Starlink 36554

NORAD ID: 67502 Int'l Des: 2026-012 Owner: SPXS Country: US Constellation: starlink operational
LEOCIRCULAR

現在のビュー

3D地球を読み込み中...

Starlink 36554について

説明を読み込み中...

次回通過

Passes for default location (London). Set your location on the main map for personalized predictions.

高度履歴

Loading altitude history...

軌道要素

1 67502U 26012K 26145.58792576 .00017492 00000-0 64332-3 0 9992
2 67502 43.0017 240.0144 0002899 261.6750 98.3773 15.27596093 19528
Epoch: May 25, 2026 • Age: 19 hours

現在のステータス

高度 491.3 km
速度 7.62 km/s
衛星直下点 -34.83°S, 173.37°E
打ち上げ日 Jan 18, 2026
運用期間 0.3 years
タイプ internet

技術仕様

分類 Payload
質量 575.00 kg
乾燥質量 530.00 kg
総質量 575.00 kg
長さ 0.30 m
直径 4.10 m
スパン 29.00 m
形状 Box + pan
製造者 SPXS
バスタイプ Starlink V2MO
フェーズステータス In Orbit
所有者/国 SPXS/US

Most Searched